Time,TemperatureF,DewpointF,PressureIn,WindDirection,WindDirectionDegrees,WindSpeedMPH,WindSpeedGustMPH,Humidity,HourlyPrecipIn,Conditions,Clouds,dailyrainin,SolarRadiationWatts/m^2,SoftwareType,DateUTC
2013-04-08 00:00:00,49.0,14.0,-100.00,SW,220,10.0,18.0,24,0.00,,,0.00,0.000000,,2013-04-08 07:00:00,
2013-04-08 00:42:00,49.0,14.0,-100.00,SW,220,10.0,18.0,24,0.00,,,0.00,0.000000,,2013-04-08 07:42:00,
2013-04-08 00:52:00,49.0,14.0,-100.00,SW,220,10.0,18.0,24,0.00,,,0.00,0.000000,,2013-04-08 07:52:00,
2013-04-08 01:00:00,50.0,19.0,-100.00,SW,220,8.0,21.0,29,0.00,,,0.00,0.000000,,2013-04-08 08:00:00,
2013-04-08 01:33:00,50.0,19.0,-100.00,SW,220,8.0,21.0,29,0.00,,,0.00,0.000000,,2013-04-08 08:33:00,
2013-04-08 01:43:00,50.0,19.0,-100.00,SW,220,8.0,21.0,29,0.00,,,0.00,0.000000,,2013-04-08 08:43:00,
2013-04-08 01:52:00,50.0,19.0,-100.00,SW,220,8.0,21.0,29,0.00,,,0.00,0.000000,,2013-04-08 08:52:00,
2013-04-08 02:00:00,50.0,14.0,-100.00,SW,235,11.0,22.0,23,0.00,,,0.00,0.000000,,2013-04-08 09:00:00,
2013-04-08 02:33:00,50.0,14.0,-100.00,SW,235,11.0,22.0,23,0.00,,,0.00,0.000000,,2013-04-08 09:33:00,
2013-04-08 02:43:00,50.0,14.0,-100.00,SW,235,11.0,22.0,23,0.00,,,0.00,0.000000,,2013-04-08 09:43:00,
2013-04-08 02:53:00,50.0,14.0,-100.00,SW,235,11.0,22.0,23,0.00,,,0.00,0.000000,,2013-04-08 09:53:00,
2013-04-08 03:00:00,49.0,16.0,-100.00,SW,224,8.0,33.0,27,0.00,,,0.00,0.000000,,2013-04-08 10:00:00,
2013-04-08 03:23:00,49.0,16.0,-100.00,SW,224,8.0,33.0,27,0.00,,,0.00,0.000000,,2013-04-08 10:23:00,
2013-04-08 03:33:00,49.0,16.0,-100.00,SW,224,8.0,33.0,27,0.00,,,0.00,0.000000,,2013-04-08 10:33:00,
2013-04-08 03:43:00,49.0,16.0,-100.00,SW,224,8.0,33.0,27,0.00,,,0.00,0.000000,,2013-04-08 10:43:00,
2013-04-08 03:53:00,49.0,16.0,-100.00,SW,224,8.0,33.0,27,0.00,,,0.00,0.000000,,2013-04-08 10:53:00,
2013-04-08 04:00:00,46.0,21.0,-100.00,WNW,302,5.0,18.0,36,0.00,,,0.00,0.000000,,2013-04-08 11:00:00,
2013-04-08 04:23:00,46.0,21.0,-100.00,WNW,302,5.0,18.0,36,0.00,,,0.00,0.000000,,2013-04-08 11:23:00,
2013-04-08 04:32:00,46.0,21.0,-100.00,WNW,302,5.0,18.0,36,0.00,,,0.00,0.000000,,2013-04-08 11:32:00,
2013-04-08 04:43:00,46.0,21.0,-100.00,WNW,302,5.0,18.0,36,0.00,,,0.00,0.000000,,2013-04-08 11:43:00,
2013-04-08 04:52:00,46.0,21.0,-100.00,WNW,302,5.0,18.0,36,0.00,,,0.00,0.000000,,2013-04-08 11:52:00,
2013-04-08 05:00:00,46.0,27.0,-100.00,SW,227,10.0,25.0,47,0.00,,,0.00,0.000000,,2013-04-08 12:00:00,
2013-04-08 05:23:00,46.0,27.0,-100.00,SW,227,10.0,25.0,47,0.00,,,0.00,0.000000,,2013-04-08 12:23:00,
2013-04-08 05:33:00,46.0,27.0,-100.00,SW,227,10.0,25.0,47,0.00,,,0.00,0.000000,,2013-04-08 12:33:00,
2013-04-08 05:42:00,46.0,27.0,-100.00,SW,227,10.0,25.0,47,0.00,,,0.00,0.000000,,2013-04-08 12:42:00,
2013-04-08 05:52:00,46.0,27.0,-100.00,SW,227,10.0,25.0,47,0.00,,,0.00,0.000000,,2013-04-08 12:52:00,
2013-04-08 06:00:00,46.0,25.0,-100.00,SW,225,16.0,39.0,44,0.00,,,0.00,0.000000,,2013-04-08 13:00:00,
2013-04-08 06:32:00,46.0,25.0,-100.00,SW,225,16.0,39.0,44,0.00,,,0.00,0.000000,,2013-04-08 13:32:00,
2013-04-08 06:43:00,46.0,25.0,-100.00,SW,225,16.0,39.0,44,0.00,,,0.00,0.000000,,2013-04-08 13:43:00,
2013-04-08 06:52:00,46.0,25.0,-100.00,SW,225,16.0,39.0,44,0.00,,,0.00,0.000000,,2013-04-08 13:52:00,
2013-04-08 07:00:00,45.0,27.0,-100.00,SSW,209,17.0,40.0,50,0.00,,,0.00,13.000000,,2013-04-08 14:00:00,
2013-04-08 07:33:00,45.0,27.0,-100.00,SSW,209,17.0,40.0,50,0.00,,,0.00,13.000000,,2013-04-08 14:33:00,
2013-04-08 07:43:00,45.0,27.0,-100.00,SSW,209,17.0,40.0,50,0.00,,,0.00,13.000000,,2013-04-08 14:43:00,
2013-04-08 07:52:00,45.0,27.0,-100.00,SSW,209,17.0,40.0,50,0.00,,,0.00,13.000000,,2013-04-08 14:52:00,
2013-04-08 08:00:00,43.0,28.0,-100.00,SW,221,17.0,34.0,55,0.00,,,-99.99,87.000000,,2013-04-08 15:00:00,
2013-04-08 08:35:00,43.0,28.0,-100.00,SW,221,17.0,34.0,55,0.00,,,-99.99,87.000000,,2013-04-08 15:35:00,
2013-04-08 08:43:00,43.0,28.0,-100.00,SW,221,17.0,34.0,55,0.00,,,-99.99,87.000000,,2013-04-08 15:43:00,
2013-04-08 08:53:00,43.0,28.0,-100.00,SW,221,17.0,34.0,55,0.00,,,-99.99,87.000000,,2013-04-08 15:53:00,
2013-04-08 09:00:00,48.0,28.0,-100.00,SW,225,17.0,46.0,45,0.00,,,0.00,289.000000,,2013-04-08 16:00:00,
2013-04-08 09:33:00,48.0,28.0,-100.00,SW,225,17.0,46.0,45,0.00,,,0.00,289.000000,,2013-04-08 16:33:00,
2013-04-08 09:42:00,48.0,28.0,-100.00,SW,225,17.0,46.0,45,0.00,,,0.00,289.000000,,2013-04-08 16:42:00,
2013-04-08 09:53:00,48.0,28.0,-100.00,SW,225,17.0,46.0,45,0.00,,,0.00,289.000000,,2013-04-08 16:53:00,
2013-04-08 10:00:00,46.0,28.0,-100.00,SSW,212,20.0,34.0,49,0.00,,,0.00,317.000000,,2013-04-08 17:00:00,
2013-04-08 10:32:00,46.0,28.0,-100.00,SSW,212,20.0,34.0,49,0.00,,,0.00,317.000000,,2013-04-08 17:32:00,
2013-04-08 10:44:00,46.0,28.0,-100.00,SSW,212,20.0,34.0,49,0.00,,,0.00,317.000000,,2013-04-08 17:44:00,
2013-04-08 10:52:00,46.0,28.0,-100.00,SSW,212,20.0,34.0,49,0.00,,,0.00,317.000000,,2013-04-08 17:52:00,
2013-04-08 11:00:00,33.0,28.0,-100.00,WNW,298,8.0,48.0,83,0.00,,,-99.99,157.000000,,2013-04-08 18:00:00,
2013-04-08 11:32:00,33.0,28.0,-100.00,WNW,298,8.0,48.0,83,0.00,,,-99.99,157.000000,,2013-04-08 18:32:00,
2013-04-08 11:42:00,33.0,28.0,-100.00,WNW,298,8.0,48.0,83,0.00,,,-99.99,157.000000,,2013-04-08 18:42:00,
2013-04-08 11:52:00,33.0,28.0,-100.00,WNW,298,8.0,48.0,83,0.00,,,-99.99,157.000000,,2013-04-08 18:52:00,
2013-04-08 12:00:00,33.0,32.0,-100.00,WSW,248,15.0,31.0,95,0.00,,,0.00,118.000000,,2013-04-08 19:00:00,
2013-04-08 12:33:00,33.0,32.0,-100.00,WSW,248,15.0,31.0,95,0.00,,,0.00,118.000000,,2013-04-08 19:33:00,
2013-04-08 12:43:00,33.0,32.0,-100.00,WSW,248,15.0,31.0,95,0.00,,,0.00,118.000000,,2013-04-08 19:43:00,
2013-04-08 12:52:00,33.0,32.0,-100.00,WSW,248,15.0,31.0,95,0.00,,,0.00,118.000000,,2013-04-08 19:52:00,
2013-04-08 13:00:00,32.0,31.0,-100.00,SW,220,9.0,28.0,97,0.01,,,0.01,116.000000,,2013-04-08 20:00:00,
2013-04-08 13:33:00,32.0,31.0,-100.00,SW,220,9.0,28.0,97,0.01,,,0.01,116.000000,,2013-04-08 20:33:00,
2013-04-08 13:43:00,32.0,31.0,-100.00,SW,220,9.0,28.0,97,0.01,,,0.01,116.000000,,2013-04-08 20:43:00,
2013-04-08 13:52:00,32.0,31.0,-100.00,SW,220,9.0,28.0,97,0.01,,,0.01,116.000000,,2013-04-08 20:52:00,
2013-04-08 14:00:00,38.0,33.0,-100.00,South,186,5.0,14.0,81,0.05,,,0.06,465.000000,,2013-04-08 21:00:00,
2013-04-08 14:22:00,38.0,33.0,-100.00,South,186,5.0,14.0,81,0.05,,,0.06,465.000000,,2013-04-08 21:22:00,
2013-04-08 14:33:00,38.0,33.0,-100.00,South,186,5.0,14.0,81,0.05,,,0.06,465.000000,,2013-04-08 21:33:00,
2013-04-08 14:43:00,38.0,33.0,-100.00,South,186,5.0,14.0,81,0.05,,,0.06,465.000000,,2013-04-08 21:43:00,
2013-04-08 14:53:00,38.0,33.0,-100.00,South,186,5.0,14.0,81,0.05,,,0.06,465.000000,,2013-04-08 21:53:00,
2013-04-08 15:00:00,37.0,31.0,-100.00,South,184,4.0,11.0,78,0.00,,,0.06,619.000000,,2013-04-08 22:00:00,
2013-04-08 15:23:00,37.0,31.0,-100.00,South,184,4.0,11.0,78,0.00,,,0.06,619.000000,,2013-04-08 22:23:00,
2013-04-08 15:32:00,37.0,31.0,-100.00,South,184,4.0,11.0,78,0.00,,,0.06,619.000000,,2013-04-08 22:32:00,
2013-04-08 15:43:00,37.0,31.0,-100.00,South,184,4.0,11.0,78,0.00,,,0.06,619.000000,,2013-04-08 22:43:00,
2013-04-08 15:53:00,37.0,31.0,-100.00,South,184,4.0,11.0,78,0.00,,,0.06,619.000000,,2013-04-08 22:53:00,
2013-04-08 16:00:00,33.0,30.0,-100.00,West,279,12.0,29.0,87,0.01,,,0.07,205.000000,,2013-04-08 23:00:00,
2013-04-08 16:32:00,33.0,30.0,-100.00,West,279,12.0,29.0,87,0.01,,,0.07,205.000000,,2013-04-08 23:32:00,
2013-04-08 16:43:00,33.0,30.0,-100.00,West,279,12.0,29.0,87,0.01,,,0.07,205.000000,,2013-04-08 23:43:00,
2013-04-08 16:52:00,33.0,30.0,-100.00,West,279,12.0,29.0,87,0.01,,,0.07,205.000000,,2013-04-08 23:52:00,
2013-04-08 17:00:00,32.0,29.0,-100.00,WSW,251,16.0,30.0,88,0.02,,,0.09,274.000000,,2013-04-09 00:00:00,
2013-04-08 17:22:00,32.0,29.0,-100.00,WSW,251,16.0,30.0,88,0.02,,,0.09,274.000000,,2013-04-09 00:22:00,
2013-04-08 17:32:00,32.0,29.0,-100.00,WSW,251,16.0,30.0,88,0.02,,,0.09,274.000000,,2013-04-09 00:32:00,
2013-04-08 17:42:00,32.0,29.0,-100.00,WSW,251,16.0,30.0,88,0.02,,,0.09,274.000000,,2013-04-09 00:42:00,
2013-04-08 17:52:00,32.0,29.0,-100.00,WSW,251,16.0,30.0,88,0.02,,,0.09,274.000000,,2013-04-09 00:52:00,
2013-04-08 18:00:00,35.0,29.0,-100.00,WSW,245,9.0,24.0,77,0.01,,,0.10,335.000000,,2013-04-09 01:00:00,
2013-04-08 18:22:00,35.0,29.0,-100.00,WSW,245,9.0,24.0,77,0.01,,,0.10,335.000000,,2013-04-09 01:22:00,
2013-04-08 18:34:00,35.0,29.0,-100.00,WSW,245,9.0,24.0,77,0.01,,,0.10,335.000000,,2013-04-09 01:34:00,
2013-04-08 18:42:00,35.0,29.0,-100.00,WSW,245,9.0,24.0,77,0.01,,,0.10,335.000000,,2013-04-09 01:42:00,
2013-04-08 18:52:00,35.0,29.0,-100.00,WSW,245,9.0,24.0,77,0.01,,,0.10,335.000000,,2013-04-09 01:52:00,
2013-04-08 19:00:00,33.0,27.0,-100.00,West,261,9.0,21.0,78,0.00,,,0.10,194.000000,,2013-04-09 02:00:00,
2013-04-08 19:22:00,33.0,27.0,-100.00,West,261,9.0,21.0,78,0.00,,,0.10,194.000000,,2013-04-09 02:22:00,
2013-04-08 19:33:00,33.0,27.0,-100.00,West,261,9.0,21.0,78,0.00,,,0.10,194.000000,,2013-04-09 02:33:00,
2013-04-08 19:44:00,33.0,27.0,-100.00,West,261,9.0,21.0,78,0.00,,,0.10,194.000000,,2013-04-09 02:44:00,
2013-04-08 19:52:00,33.0,27.0,-100.00,West,261,9.0,21.0,78,0.00,,,0.10,194.000000,,2013-04-09 02:52:00,
2013-04-08 20:00:00,32.0,28.0,-100.00,NW,307,9.0,19.0,85,0.00,,,0.10,5.000000,,2013-04-09 03:00:00,
2013-04-08 20:22:00,32.0,28.0,-100.00,NW,307,9.0,19.0,85,0.00,,,0.10,5.000000,,2013-04-09 03:22:00,
2013-04-08 20:33:00,32.0,28.0,-100.00,NW,307,9.0,19.0,85,0.00,,,0.10,5.000000,,2013-04-09 03:33:00,
2013-04-08 20:43:00,32.0,28.0,-100.00,NW,307,9.0,19.0,85,0.00,,,0.10,5.000000,,2013-04-09 03:43:00,
2013-04-08 20:53:00,32.0,28.0,-100.00,NW,307,9.0,19.0,85,0.00,,,0.10,5.000000,,2013-04-09 03:53:00,
2013-04-08 21:00:00,31.0,29.0,-100.00,NNW,339,9.0,18.0,91,0.00,,,0.10,0.000000,,2013-04-09 04:00:00,
2013-04-08 21:23:00,31.0,29.0,-100.00,NNW,339,9.0,18.0,91,0.00,,,0.10,0.000000,,2013-04-09 04:23:00,
2013-04-08 21:33:00,31.0,29.0,-100.00,NNW,339,9.0,18.0,91,0.00,,,0.10,0.000000,,2013-04-09 04:33:00,
2013-04-08 21:43:00,31.0,29.0,-100.00,NNW,339,9.0,18.0,91,0.00,,,0.10,0.000000,,2013-04-09 04:43:00,
2013-04-08 21:53:00,31.0,29.0,-100.00,NNW,339,9.0,18.0,91,0.00,,,0.10,0.000000,,2013-04-09 04:53:00,
2013-04-08 22:00:00,30.0,28.0,-100.00,NNW,344,10.0,19.0,93,0.00,,,0.10,0.000000,,2013-04-09 05:00:00,
2013-04-08 22:22:00,30.0,28.0,-100.00,NNW,344,10.0,19.0,93,0.00,,,0.10,0.000000,,2013-04-09 05:22:00,
2013-04-08 22:32:00,30.0,28.0,-100.00,NNW,344,10.0,19.0,93,0.00,,,0.10,0.000000,,2013-04-09 05:32:00,
2013-04-08 22:43:00,30.0,28.0,-100.00,NNW,344,10.0,19.0,93,0.00,,,0.10,0.000000,,2013-04-09 05:43:00,
2013-04-08 22:52:00,30.0,28.0,-100.00,NNW,344,10.0,19.0,93,0.00,,,0.10,0.000000,,2013-04-09 05:52:00,
2013-04-08 23:00:00,30.0,28.0,-100.00,North,349,12.0,22.0,92,0.00,,,0.10,0.000000,,2013-04-09 06:00:00,
2013-04-08 23:22:00,30.0,28.0,-100.00,North,349,12.0,22.0,92,0.00,,,0.10,0.000000,,2013-04-09 06:22:00,
2013-04-08 23:32:00,30.0,28.0,-100.00,North,349,12.0,22.0,92,0.00,,,0.10,0.000000,,2013-04-09 06:32:00,
2013-04-08 23:42:00,30.0,28.0,-100.00,North,349,12.0,22.0,92,0.00,,,0.10,0.000000,,2013-04-09 06:42:00,
2013-04-08 23:52:00,30.0,28.0,-100.00,North,349,12.0,22.0,92,0.00,,,0.10,0.000000,,2013-04-09 06:52:00,